Location: ????????
(55.3939°N, 37.4780°E)
Time: 08:28:53
(UTC+00:00)

Cosmos 1302 Rocket - Pass Details

Date: 14 April 2026
Orbit: 752 x 771 km, 74.0° (Epoch: 9 May)

Event Time Altitude Azimuth Distance (km) Brightness Sun altitude
Exits shadow 23:29:15 35° 171° (S) 1,213 4.6 -20.3°
Maximum altitude 23:31:13 57° 111° (ESE) 890 4.3 -20.2°
Drops below altitude 10° 23:36:17 10° 33° (NNE) 2,289 7.7 -19.8°
Sets 23:38:41 0° 30° (NNE) 3,218 8.9 -19.6°
